Location: Chervonnoye
(48.6000°N, 34.4000°E)
Time: 04:21:44
(UTC+00:00)

CSL-04 Rocket - Pass Details

Date: 23 November 2020
Orbit: 807 x 859 km, 98.9° (Epoch: 18 January)

Event Time Altitude Azimuth Distance (km) Brightness Sun altitude
Exits shadow 16:37:09 75° 133° (SE) 856 3.5 -26.4°
Maximum altitude 16:37:34 83° 73° (ENE) 837 3.5 -26.5°
Drops below altitude 10° 16:42:56 10° 346° (NNW) 2,419 6.2 -27.4°
Sets 16:45:16 0° 346° (NNW) 3,350 7.0 -27.7°
